Other Public Products
Issued by NWS Grand Forks, ND

Home | Current Version | Previous Version | Graphics & Text | Print | Product List | Glossary Off
Versions: 1 2 3 4 5 6 7 8 9 10 11 12 13 14 15 16 17 18 19 20 21 22 23 24 25 26 27 28 29 30 31 32 33 34 35 36 37 38 39 40 41 42 43 44 45 46 47 48 49 50

000
FPUS83 KFGF 021431
OPUFGF
PRAIRIE TO PINES WEATHER ROUNDUP
NATIONAL WEATHER SERVICE EASTERN NORTH DAKOTA/GRAND FORKS ND
900 AM CDT THU OCT 02 2014

 **SATELLITE DATA USED TO AUGMENT SKY COVER AT AUTOMATED STATIONS**
 *****  WEATHER ACROSS EASTERN NORTH DAKOTA  *****

CITY           SKY/WX    TMP DP  RH WIND       PRES   REMARKS
GRAND FORKS    CLOUDY    50  47  89 W5        29.81S
GRAND FORKS AF PTSUNNY   51  51  99 W6        29.82S
GRAND CITY NWS   N/A     52 N/A N/A W7          N/A
BUXTON           N/A     49  49  99 SW3         N/A
DEVILS LAKE    SUNNY     52  41  66 W10       29.81S
FARGO          PTSUNNY   51  47  86 W8        29.84F
WAHPETON ARPT  CLOUDY    52  46  82 NW8       29.85F
$$

 *****  WEATHER ACROSS CENTRAL AND WESTERN NORTH DAKOTA  *****

CITY           SKY/WX    TMP DP  RH WIND       PRES   REMARKS
JAMESTOWN      MOSUNNY   46  43  89 W7        29.85S
BISMARCK       SUNNY     46  42  86 W6        29.89S
MINOT          CLOUDY    50  41  71 SW7       29.78F
MINOT AFB      MOSUNNY   48  44  87 SW9       29.77F
GARRISON         N/A     48  44  86 SW7       29.82F
WILLISTON      MOCLDY    45  41  86 SW10      29.82R
DICKINSON      MOSUNNY   44  37  76 SW14      29.85F
HETTINGER      CLOUDY    42  38  85 CALM      29.92F
$$

 *****  OTHER OBSERVATIONS NORTHEAST NORTH DAKOTA  *****

CITY           SKY/WX    TMP DP  RH WIND       PRES   REMARKS
WALHALLA         N/A     48  46  93 W6        29.81R
LANGDON        FAIR      41  41 100 W5        29.81S
CAVALIER       FAIR      48  45  87 W8        29.80R
GRAFTON        FAIR      46  46 100 W7        29.81S
CANDO          FAIR      46  45  93 SW6       29.81F
FORT TOTTEN      N/A     48  45  89 S2        29.95S
ROLLA          FAIR      46  46 100 S7        29.80R
RUGBY          FAIR      45  45 100 SE5       29.81S
 ***** THE ABOVE OBSERVATIONS ARE NON NWS ARE NOT QUALITY
        CONTROLLED AND MAY MIS-REPORT RAIN FOR SNOW...
$$

 *****  OTHER OBSERVATIONS SOUTHEAST NORTH DAKOTA *****

CITY           SKY/WX    TMP DP  RH WIND       PRES   REMARKS
COOPERSTOWN    NOT AVBL
VALLEY CITY    FAIR      48  48 100 W9        29.85S
OAKES            N/A     50  50 100 W6        29.86F
GWINNER          N/A     52  52 100 W8        29.87F
SHEYENNE NWR     N/A     50  48  93 W3        29.95S
BUFFALO          N/A     49  47  93 SW3         N/A
WYNDMERE         N/A     52  48  87 W3          N/A
 ***** THE ABOVE OBSERVATIONS ARE NON NWS ARE NOT QUALITY
       CONTROLLED AND MAY MIS-REPORT RAIN FOR SNOW...
$$

  *****  WEATHER ACROSS NORTHERN MINNESOTA  *****

CITY           SKY/WX    TMP DP  RH WIND       PRES   REMARKS
FLAG ISLAND    CLOUDY    50  46  87 W9        29.76F
WARROAD        CLOUDY    50  46  87 W7        29.79F
ROSEAU         CLOUDY    52  46  82 W3        29.79F
HALLOCK        PTSUNNY   46  45  93 CALM      29.80R
THF RVR FALLS  CLOUDY    48  46  93 W7        29.82R
HALSTAD          N/A     51  46  85 W7          N/A
FOSSTON        PTSUNNY   48  46  93 CALM      29.83F
BAUDETTE       CLOUDY    51  48  89 VRB3      29.79S
WASKISH        PTSUNNY   54  52  94 W3          N/A
CROOKSTON      CLOUDY    50  46  87 SW3       29.83R
$$
  *****  WEATHER ACROSS CENTRAL AND WEST MINNESOTA  *****

CITY           SKY/WX    TMP DP  RH WIND       PRES   REMARKS
BEMIDJI        PTSUNNY   51  49  92 W8        29.83R
PARK RAPIDS    MOSUNNY   49  48  97 W6        29.84S
WADENA         MOSUNNY   50  48  93 W5        29.84F
DETROIT LAKES  PTSUNNY   50  46  87 CALM      29.85F
MOORHEAD       NOT AVBL
FERGUS FALLS   PTSUNNY   50  46  87 CALM      29.86F
ELBOW LAKE     CLOUDY    49  47  95 CALM      29.86S
MORRIS MN      CLOUDY    52  48  87 NW3       29.86R
STAPLES        MOSUNNY   48  48 100 CALM      29.84S
WHEATON        CLOUDY    52  46  82 W3        29.88S
$$
  *****  WEATHER ELSEWHERE ACROSS MINNESOTA  *****

CITY           SKY/WX    TMP DP  RH WIND       PRES   REMARKS
DULUTH         CLOUDY    53  50  89 VRB3      29.85R FOG
INTRNTL FALLS  CLOUDY    55  51  86 W6        29.78F
ELY            PTSUNNY   55  52  88 S7        29.82S
CLOQUET        CLOUDY    54  52  94 CALM      29.84S
BRAINERD       FOG       50  50 100 CALM      29.84S VSB 1/2
HIBBING        CLOUDY    54  51  90 SW5       29.83S
ALEXANDRIA     PTSUNNY   51  48  89 NW8       29.87S
SAINT CLOUD    CLOUDY    54  51  90 CALM      29.85S
MINNEAPOLIS    CLOUDY    58  56  93 N5        29.84F
$$

  *****  WEATHER ACROSS SOUTH DAKOTA  *****

CITY           SKY/WX    TMP DP  RH WIND       PRES   REMARKS
SIOUX FALLS    RAIN      54  52  93 NW8       29.89F FOG
BROOKINGS      NOT AVBL
WATERTOWN      CLOUDY    51  49  92 NW6       29.89R
HURON          CLOUDY    52  50  93 NW7       29.90R
SISSETON         N/A     52  50  93 CALM      29.86S
ABERDEEN       CLOUDY    51  48  89 W3        29.89S
MITCHELL       CLOUDY    53  51  93 W5        29.93R
PIERRE         SUNNY     47  44  90 W7        29.93S
MOBRIDGE       SUNNY     49  45  86 CALM      29.89F
RAPID CITY     SUNNY     46  38  73 CALM      30.00S
$$

  *****  SOME WEATHER IN NEARBY STATES *****

CITY           SKY/WX    TMP DP  RH WIND       PRES   REMARKS
GLASGOW MT     CLOUDY    42  36  79 NW17      29.93R
GREAT FALLS MT CLOUDY    34  34 100 N14       30.12R WCI  24
CHEYENNE WY    SUNNY     39  28  64 W8        30.13R
SCOTTSBLUFF NE SUNNY     41  40  96 NW6       30.10R
OMAHA NE       CLOUDY    59  56  89 NW14      29.81R
DES MOINES IA  CLOUDY    65  63  93 SE6       29.77F FOG
DAVENPORT IA   NOT AVBL
CHICAGO IL     CLOUDY    65  60  84 SE8       29.88R
EAU CLAIRE WI  CLOUDY    57  55  93 E3        29.83F
LA CROSSE WI   CLOUDY    60  58  92 CALM      29.83S FOG
$$

  *****  SOME NATIONAL WEATHER *****

CITY           SKY/WX    TMP DP  RH WIND       PRES   REMARKS
LA GUARDIA NY  CLOUDY    63  54  72 NE13      30.14R
RALEIGH NC     MOSUNNY   72  65  78 CALM      30.13R
ATLANTA GA     MOSUNNY   73  65  75 S5        30.13R
NEW ORLEANS LA PTSUNNY   83  77  82 SE10      29.99R HX  92
OKLAHOMA CITY  MOSUNNY   75  68  78 S13       29.74S
ALBUQUERQUE NM SUNNY     52  22  30 N7        30.20R
SALT LAKE CITY PTCLDY    43  35  73 SE9       30.28R
LOS ANGELES CA PTCLDY    64  57  78 CALM      29.93R
BOISE ID       CLEAR     45  34  65 E6        30.19R
SEATTLE WA     PTCLDY    50  45  83 CALM      30.27R
$$

*** WEATHER ACROSS MANITOBA...SASKATCHEWAN AND ONTARIO ***
                ***ONTARIO***

CITY           SKY/WX    TMP DP  RH WIND       PRES   REMARKS
GERALDTON      CLOUDY    52  52 100 SW8G17    29.82F FOG
THUNDER BAY    PTSUNNY   54  54 100 E3        29.84S
SIOUX LOOKOUT  CLOUDY    54  52  94 W8        29.75
TORONTO        CLOUDY    63  57  82 E8        30.10  FOG
BIG TROUT LK   PTSUNNY   54  48  82 W10G18    29.54R
PICKLE LAKE    PTSUNNY   54  50  87 W14       29.70R
DRYDEN         CLOUDY    54  50  87 W7        29.75S
KENORA         PTSUNNY   50  48  93 W7        29.77
$$
                *** MANITOBA***

CITY           SKY/WX    TMP DP  RH WIND       PRES   REMARKS
BRANDON        MOSUNNY   41  39  93 SW5       29.77F
DAUPHIN        SUNNY     46  41  81 VRB2      29.71F
ISLAND LAKE    LGT RAIN N/A N/A N/A W12G20      N/A
PILOT MOUND      N/A     43  41  93 SE2         N/A
THE PAS        CLOUDY    41  39  93 W8        29.68
THOMPSON       LGT RAIN  43  43 100 W12G17    29.55R
WINNIPEG       MOSUNNY   46  43  87 W8        29.78S
LYNN LAKE      MOCLDY    37  36  93 W13G22    29.59R
CHURCHILL      LGT RAIN  41  39  93 NW16G22   29.26R
GILLAM         PTSUNNY   45  43  93 W20G29    29.42
$$
                ***SASKATCHEWAN***

CITY           SKY/WX    TMP DP  RH WIND       PRES   REMARKS
ESTEVAN        MOCLDY    45  41  87 SW12      29.75R
KINDERSLEY     MOCLDY    34  27  75 NW18G32   30.00R WCI  23
LLOYDMINSTER   MOCLDY    32  27  80 NW18G31   29.99R WCI  20
PRINCE ALBERT  MOCLDY    39  30  70 NW17      29.76R
REGINA         LGT RAIN  41  39  93 NW16G22   29.81R


USA.gov is the U.S. government's official web portal to all federal, state and local government web resources and services.